When you browse on this site, cookies collect data to enhance your experience and personalize the content and advertising you see.
Visit our Privacy Policy to learn more. By continuing to use the site, you agree to this use of cookies and data.
  • In Schweiz
  • Länderverzeichnis
  • Für 7 Tage
  • Wassertemperatur
  • Wetterkarte
  • Widgets
  • user-avatar
    Anmelden

    Stündliche Wetter Basel

    Heute, 21 August, Mittwoch

    Zeit Temperatur Niederschläge Wind Luftdruck Luftfeuchtigkeit
    00:00 +14°C° 0 mm 1 m/S 747 mmHg 95%
    01:00 +13°C° 0 mm 1 m/S 747 mmHg 95%
    02:00 +13°C° 0 mm 1 m/S 747 mmHg 95%
    03:00 +12°C° 0 mm 1 m/S 746 mmHg 95%
    04:00 +12°C° 0 mm 1 m/S 746 mmHg 95%
    05:00 +12°C° 0 mm 1 m/S 746 mmHg 94%
    06:00 +13°C° 0 mm 1 m/S 746 mmHg 94%
    07:00 +13°C° 0 mm 1 m/S 746 mmHg 93%
    08:00 +15°C° 0 mm 2 m/S 746 mmHg 85%
    09:00 +17°C° 0 mm 2 m/S 746 mmHg 78%
    10:00 +19°C° 0 mm 3 m/S 746 mmHg 70%
    11:00 +20°C° 0 mm 3 m/S 746 mmHg 65%
    12:00 +21°C° 0 mm 4 m/S 746 mmHg 60%
    13:00 +23°C° 0 mm 4 m/S 745 mmHg 56%
    14:00 +23°C° 0 mm 4 m/S 745 mmHg 56%
    15:00 +23°C° 0 mm 4 m/S 745 mmHg 57%
    16:00 +25°C° 0 mm 4 m/S 744 mmHg 57%
    17:00 +22°C° 0 mm 4 m/S 744 mmHg 64%
    18:00 +21°C° 0 mm 3 m/S 744 mmHg 70%
    19:00 +19°C° 0 mm 3 m/S 744 mmHg 76%
    20:00 +18°C° 0 mm 2 m/S 744 mmHg 79%
    21:00 +17°C° 0 mm 2 m/S 744 mmHg 83%
    22:00 +16°C° 0 mm 2 m/S 744 mmHg 86%
    23:00 +15°C° 0 mm 1 m/S 744 mmHg 88%

    Morgen, 22 August, Donnerstag

    Zeit Temperatur Niederschläge Wind Luftdruck Luftfeuchtigkeit
    00:00 +15°C° 0 mm 1 m/S 744 mmHg 89%
    01:00 +14°C° 0 mm 1 m/S 744 mmHg 91%
    02:00 +14°C° 0 mm 1 m/S 744 mmHg 92%
    03:00 +13°C° 0 mm 1 m/S 744 mmHg 92%
    04:00 +13°C° 0 mm 1 m/S 743 mmHg 93%
    05:00 +14°C° 0 mm 1 m/S 744 mmHg 92%
    06:00 +14°C° 0 mm 1 m/S 744 mmHg 91%
    07:00 +15°C° 0 mm 1 m/S 744 mmHg 89%
    08:00 +18°C° 0 mm 1 m/S 744 mmHg 84%
    09:00 +19°C° 0 mm 1 m/S 744 mmHg 79%
    10:00 +20°C° 0 mm 2 m/S 744 mmHg 74%
    11:00 +21°C° 0 mm 2 m/S 744 mmHg 71%
    12:00 +23°C° 0 mm 2 m/S 744 mmHg 68%
    13:00 +25°C° 0 mm 2 m/S 744 mmHg 64%
    14:00 +25°C° 0 mm 2 m/S 744 mmHg 65%
    15:00 +25°C° 0 mm 2 m/S 744 mmHg 65%
    16:00 +26°C° 0 mm 2 m/S 743 mmHg 66%
    17:00 +24°C° 0 mm 1 m/S 744 mmHg 72%
    18:00 +23°C° 0 mm 1 m/S 744 mmHg 79%
    19:00 +22°C° 0 mm 1 m/S 744 mmHg 85%
    20:00 +21°C° 0 mm 1 m/S 744 mmHg 87%
    21:00 +20°C° 0 mm 1 m/S 744 mmHg 90%
    22:00 +19°C° 0 mm 1 m/S 744 mmHg 92%
    23:00 +18°C° 0 mm 1 m/S 744 mmHg 92%

    übermorgen, 23 August, Freitag

    Zeit Temperatur Niederschläge Wind Luftdruck Luftfeuchtigkeit
    00:00 +18°C° 0 mm 1 m/S 744 mmHg 93%
    01:00 +16°C° 0 mm 1 m/S 744 mmHg 93%
    02:00 +16°C° 0 mm 1 m/S 744 mmHg 94%
    03:00 +16°C° 0 mm 1 m/S 744 mmHg 94%
    04:00 +15°C° 0 mm 1 m/S 744 mmHg 94%
    05:00 +16°C° 0 mm 1 m/S 744 mmHg 94%
    06:00 +16°C° 0 mm 1 m/S 744 mmHg 93%
    07:00 +18°C° 0 mm 1 m/S 744 mmHg 92%
    08:00 +20°C° 0 mm 1 m/S 744 mmHg 86%
    09:00 +21°C° 0 mm 1 m/S 744 mmHg 79%
    10:00 +23°C° 0 mm 1 m/S 744 mmHg 73%
    11:00 +24°C° 0 mm 2 m/S 744 mmHg 70%
    12:00 +25°C° 0 mm 2 m/S 743 mmHg 67%
    13:00 +27°C° 0 mm 2 m/S 743 mmHg 63%
    14:00 +27°C° 0 mm 2 m/S 743 mmHg 64%
    15:00 +27°C° 0 mm 2 m/S 743 mmHg 65%
    16:00 +27°C° 0 mm 2 m/S 742 mmHg 65%
    17:00 +26°C° 0 mm 2 m/S 742 mmHg 72%
    18:00 +25°C° 0 mm 1 m/S 742 mmHg 78%
    19:00 +23°C° 0 mm 1 m/S 742 mmHg 85%
    20:00 +22°C° 0 mm 1 m/S 742 mmHg 87%
    21:00 +21°C° 0 mm 1 m/S 743 mmHg 89%
    22:00 +20°C° 0 mm 1 m/S 743 mmHg 91%
    23:00 +20°C° 0 mm 1 m/S 742 mmHg 92%

    24 August, Samstag

    Zeit Temperatur Niederschläge Wind Luftdruck Luftfeuchtigkeit
    00:00 +19°C° 0 mm 1 m/S 742 mmHg 92%
    01:00 +19°C° 0 mm 1 m/S 742 mmHg 93%
    02:00 +17°C° 0 mm 0 m/S 742 mmHg 93%
    03:00 +16°C° 0 mm 0 m/S 742 mmHg 94%
    04:00 +16°C° 0 mm 0 m/S 742 mmHg 94%
    05:00 +17°C° 0 mm 0 m/S 742 mmHg 94%
    06:00 +17°C° 0 mm 0 m/S 742 mmHg 93%
    07:00 +18°C° 0 mm 0 m/S 742 mmHg 93%
    08:00 +21°C° 0 mm 1 m/S 742 mmHg 87%
    09:00 +23°C° 0 mm 1 m/S 742 mmHg 81%
    10:00 +25°C° 0 mm 1 m/S 742 mmHg 75%
    11:00 +26°C° 0 mm 1 m/S 742 mmHg 70%
    12:00 +28°C° 0 mm 1 m/S 741 mmHg 64%
    13:00 +29°C° 0 mm 1 m/S 741 mmHg 58%
    14:00 +29°C° 0 mm 1 m/S 741 mmHg 57%
    15:00 +29°C° 0 mm 1 m/S 741 mmHg 55%
    16:00 +29°C° 0 mm 1 m/S 741 mmHg 54%
    17:00 +28°C° 0 mm 1 m/S 741 mmHg 62%
    18:00 +26°C° 0 mm 1 m/S 740 mmHg 70%
    19:00 +22°C° 0 mm 0 m/S 740 mmHg 78%
    20:00 +21°C° 0 mm 0 m/S 741 mmHg 80%
    21:00 +20°C° 0 mm 0 m/S 741 mmHg 83%
    22:00 +19°C° 0 mm 0 m/S 741 mmHg 86%
    23:00 +19°C° 0 mm 0 m/S 741 mmHg 86%

    25 August, Sonntag

    Zeit Temperatur Niederschläge Wind Luftdruck Luftfeuchtigkeit
    00:00 +18°C° 0 mm 0 m/S 741 mmHg 86%
    01:00 +18°C° 0 mm 0 m/S 741 mmHg 86%
    02:00 +19°C° 0 mm 1 m/S 740 mmHg 87%
    03:00 +19°C° 0 mm 1 m/S 740 mmHg 88%
    04:00 +19°C° 0 mm 1 m/S 740 mmHg 89%
    05:00 +19°C° 0 mm 1 m/S 740 mmHg 88%
    06:00 +20°C° 0 mm 1 m/S 741 mmHg 87%
    07:00 +20°C° 0 mm 1 m/S 741 mmHg 87%
    08:00 +23°C° 0 mm 1 m/S 741 mmHg 79%
    09:00 +25°C° 0 mm 1 m/S 741 mmHg 70%
    10:00 +27°C° 0 mm 1 m/S 741 mmHg 62%
    11:00 +28°C° 0 mm 1 m/S 741 mmHg 57%
    12:00 +30°C° 0 mm 1 m/S 741 mmHg 52%
    13:00 +31°C° 0 mm 1 m/S 741 mmHg 47%
    14:00 +31°C° 0 mm 1 m/S 741 mmHg 47%
    15:00 +31°C° 0 mm 1 m/S 741 mmHg 46%
    16:00 +31°C° 0 mm 1 m/S 741 mmHg 45%
    17:00 +29°C° 0 mm 1 m/S 741 mmHg 52%
    18:00 +27°C° 0 mm 1 m/S 741 mmHg 59%
    19:00 +23°C° 0 mm 0 m/S 741 mmHg 66%
    20:00 +22°C° 0 mm 0 m/S 741 mmHg 67%
    21:00 +21°C° 0 mm 0 m/S 741 mmHg 67%
    22:00 +22°C° 0 mm 1 m/S 742 mmHg 68%
    23:00 +21°C° 0 mm 1 m/S 742 mmHg 69%

    26 August, Montag

    Zeit Temperatur Niederschläge Wind Luftdruck Luftfeuchtigkeit
    00:00 +21°C° 0 mm 1 m/S 742 mmHg 70%
    01:00 +20°C° 0 mm 1 m/S 742 mmHg 72%
    02:00 +20°C° 0 mm 1 m/S 742 mmHg 73%
    03:00 +20°C° 0 mm 1 m/S 742 mmHg 74%
    04:00 +19°C° 0 mm 1 m/S 742 mmHg 75%
    05:00 +20°C° 0 mm 1 m/S 742 mmHg 75%
    06:00 +20°C° 0 mm 1 m/S 742 mmHg 76%
    07:00 +19°C° 0 mm 0 m/S 742 mmHg 76%
    08:00 +23°C° 0 mm 1 m/S 743 mmHg 70%
    09:00 +25°C° 0 mm 1 m/S 743 mmHg 63%
    10:00 +28°C° 0 mm 1 m/S 743 mmHg 56%
    11:00 +29°C° 0 mm 1 m/S 743 mmHg 52%
    12:00 +31°C° 0 mm 1 m/S 743 mmHg 48%
    13:00 +32°C° 0 mm 1 m/S 743 mmHg 44%
    14:00 +32°C° 0 mm 1 m/S 743 mmHg 44%
    15:00 +32°C° 0 mm 1 m/S 742 mmHg 43%
    16:00 +32°C° 0 mm 1 m/S 742 mmHg 43%
    17:00 +28°C° 0 mm 0 m/S 742 mmHg 51%
    18:00 +26°C° 0 mm 0 m/S 742 mmHg 58%
    19:00 +24°C° 0 mm 0 m/S 742 mmHg 66%
    20:00 +23°C° 0 mm 0 m/S 742 mmHg 67%
    21:00 +22°C° 0 mm 0 m/S 743 mmHg 68%
    22:00 +23°C° 0 mm 1 m/S 743 mmHg 69%
    23:00 +23°C° 0 mm 1 m/S 743 mmHg 69%
    Mehr zeigen